Find Starlink 34480

NORAD ID: 64427 Int'l Des: 2025-129 Owner: SPXS Country: US Constellation: starlink operational
LEOCIRCULAR

リアルタイム位置

3D地球を読み込み中...

Starlink 34480について

説明を読み込み中...

次回通過

Passes for default location (London). Set your location on the main map for personalized predictions.

高度履歴

Loading altitude history...

軌道要素

1 64427U 25129R 26107.03580060 .00003821 00000-0 32778-3 0 9994
2 64427 70.0011 337.6702 0002692 268.1959 91.8892 14.98338866 47038
Epoch: Apr 17, 2026 • Age: 14 hours

現在のステータス

高度 595.6 km
速度 7.56 km/s
衛星直下点 -69.88°S, 174.02°W
打ち上げ日 Jun 17, 2025
運用期間 0.8 years
タイプ internet

技術仕様

分類 Payload
質量 575.00 kg
乾燥質量 530.00 kg
総質量 575.00 kg
長さ 0.30 m
直径 4.10 m
スパン 29.00 m
形状 Box + pan
製造者 SPXS
バスタイプ Starlink V2MO
フェーズステータス In Orbit
所有者/国 SPXS/US

Most Searched